Regional Weather Roundup
Issued by NWS

Home | Current Version | Previous Version | Graphics & Text | Print | Product List | Glossary On
Versions: 1 2 3 4 5 6 7 8 9 10 11 12 13 14 15 16 17 18 19 20 21 22 23 24 25 26 27 28 29 30 31 32 33 34 35 36 37 38 39 40 41 42 43 44 45 46 47 48 49 50
000
ASUS43 KTOP 091359
RWRKS

WEATHER ROUNDUP FOR KANSAS
NATIONAL WEATHER SERVICE GOODLAND KS
800 AM CST TUE FEB 09 2016

NOTE:  "FAIR" INDICATES FEW OR NO CLOUDS BELOW 12,000 FEET WITH NO
SIGNIFICANT WEATHER AND/OR OBSTRUCTIONS TO VISIBILITY.

KSZ001>006-013>018-027>032-041>047-091500-
NORTHWEST KANSAS

CITY           SKY/WX    TMP DP  RH WIND       PRES   REMARKS
GOODLAND       CLEAR     32  24  72 NW13      30.23R WCI  22
HAYS           MOCLDY    30  16  55 NW9       30.25R
HILL CITY      CLOUDY    26  19  74 S6        30.26R
RUSSELL        CLOUDY    32  19  58 N13       30.24R WCI  22
$$

KSZ061>065-074>080-084>089-091500-
SOUTHWEST KANSAS

CITY           SKY/WX    TMP DP  RH WIND       PRES   REMARKS
DODGE CITY     CLEAR     27  21  78 NW10      30.25R WCI  17
ELKHART          N/A     32  21  64 W9          N/A
GARDEN CITY    CLEAR     26  22  84 W10       30.24F WCI  16
GREAT BEND     CLOUDY    28  18  64 NW6       30.26R
LIBERAL        CLEAR     32  23  69 W13       30.27S WCI  22
$$

KSZ066>073-081>083-090>101-091500-
SOUTHEAST KANSAS

CITY           SKY/WX    TMP DP  RH WIND       PRES   REMARKS
CHANUTE        CLEAR     29  16  58 NW17      30.16R WCI  17
COFFEYVILLE    CLEAR     31  19  61 NW17      30.18R WCI  19
HUTCHINSON     CLOUDY    34  17  50 N15G23    30.23R WCI  24
MEDICINE LODGE   N/A     28  20  71 NW8       30.25R
NEWTON         CLOUDY    30  16  55 N20G25    30.22R WCI  18
PARSONS        CLEAR     29  19  66 NW13      30.17R WCI  19
WICHITA INTL   MOCLDY    34  19  54 N16       30.22R WCI  24
WICHITA JABRA  MOCLDY    29  19  66 NW9       30.21R
WINFIELD       CLEAR     27  20  75 W8        30.23R
$$

KSZ007>012-019>026-033>040-048>060-102>105-091500-
NORTHEAST KANSAS

CITY           SKY/WX    TMP DP  RH WIND       PRES   REMARKS
CONCORDIA      CLOUDY    24  13  62 N16G24    30.24R WCI  11
EMPORIA        CLEAR     27  13  55 NW20G30   30.18R WCI  13
LAWRENCE       CLEAR     22   8  55 N25G31    30.17R WCI   5
MANHATTAN      CLEAR     25   8  48 N10G18    30.24R WCI  15
OLATHE IND     CLEAR     20  11  68 N18       30.15R WCI   5
OLATHE EXE     CLEAR     19   9  65 N16G28    30.14R WCI   4
SALINA         CLOUDY    31  17  56 N17       30.26R WCI  19
TOPEKA BILLARD CLEAR     24   9  52 NW17G24   30.18R WCI  11
TOPEKA FORBES  CLEAR     25   8  48 N26G35    30.16R WCI   9
$$




USA.gov is the U.S. government's official web portal to all federal, state and local government web resources and services.